Hauptseite
METAR-TAF:

METAR-TAF

Flughäfen :

Geilenkirchen, Deutschland

NATO-Flugplatz Geilenkirchen

Breite: 50-57-39N, Länge: 006-2-33E, Höhe: 90 m

METAR: fehlend

Zeit: 08:50 (06:50 UTC)

Prognose

Neuester Wetterbericht von vor 13 Stunden und 50 Minuten, um 17:00 UTC
Gültige Prognose vom 20 um 18 UTC bis 21 um 09 UTC
Wind 6 kt aus West
Sichtweite 10 km oder mehr
keine Wolken unter 1500 m und keine Kumulonimbus oder Gewitterwolken
Übergehend zu
vom 20 um 19 UTC bis 20 um 21 UTC
Wind 3 kt aus unterschiedlichen Richtungen

TAF: ETNG 201700Z 2018/2109 28006KT CAVOK BECMG 2019/2021 VRB03KT

Wetterbeobachtungen und Prognosen von mehr als 4000 Flughäfen (METAR und TAF Bericht).

Die verfügbaren Stationen werden durch gelbe und rote Markierungen auf der Karte dargestellt.

Führen Sie die Maus auf sie, um den Namen der Station zu sehen.

Darauf klicken, um die Beobachtung von Wetterbeobachtungen und Prognosen zu sehen.

Um die Karte zu ändern : klicken Sie auf den grünen Tasten mit einem schwarzen Kreuz Zum Vergrößern, auf den grünen Button mit einem Gedankenstrich zu verkleinern, oder auf die grünen Pfeile für benachbarte Karten.


METAR-TAF: